Find Teruteru

NORAD ID: 67687 Int'l Des: 1998-067 Owner: HUS Country: J operational
LEOCIRCULAR

Current View

Loading 3D Globe...

About Teruteru

Description loading...

Upcoming Passes

Passes for default location (London). Set your location on the main map for personalized predictions.

Altitude History

Loading altitude history...

Two-Line Element Set

1 67687U 98067YD 26145.95468132 .00049775 00000-0 64120-3 0 9998
2 67687 51.6302 45.8616 0009636 101.1863 259.0214 15.58475402 16738
Epoch: May 25, 2026 • Age: 16 hours

Current Status

Altitude 388.0 km
Velocity 7.68 km/s
Sub-Earth Point 26.84°N, 91.04°E
Launch Date Oct 26, 2025
Age 0.5 years
Type other

Technical Details

Classification Payload
Mass 1.00 kg
Dry Mass 1.00 kg
Total Mass 1.00 kg
Length 0.10 m
Diameter 0.10 m
Span 0.10 m
Shape Box
Manufacturer HUS
Bus Type Cubesat 1U
Phase Status In Orbit
Owner/State HUS/J

Most Searched